FGPLK LFPB-LFMD

Flight info

Callsign FGPLK
Flight time 1h 15m
Altitude 35000
Route LATRA DCT LAMUT DCT UTUVA DCT LERGA DCT LIQID DCT LATAM DCT MTL DCT XATEL
Aircraft C750/M-SBDE3FGHRWXY/S

Departure

Time 2026-04-21 19:30
Airport Paris-Le Bourget International Airport (LFPB)

Arrival

Time 2026-04-21 20:45
Airport Cannes Mandelieu Airport (LFMD)
Time Latitude Longitude Altitude Speed Heading
2026-04-21 18:27 48.96336 2.44918 168 ft 0 kts 167°
2026-04-21 19:23 48.96330 2.44920 168 ft 5 kts 169°
2026-04-21 19:23 48.96307 2.44898 168 ft 5 kts 239°
2026-04-21 19:23 48.96315 2.44868 168 ft 0 kts 312°
2026-04-21 19:24 48.96330 2.44785 168 ft 14 kts 269°
2026-04-21 19:24 48.96334 2.44689 170 ft 8 kts 276°
2026-04-21 19:24 48.96344 2.44566 168 ft 14 kts 279°
2026-04-21 19:24 48.96309 2.44488 170 ft 9 kts 205°
2026-04-21 19:25 48.96283 2.44470 169 ft 2 kts 206°
2026-04-21 19:25 48.96241 2.44441 168 ft 16 kts 205°
2026-04-21 19:25 48.96090 2.44335 160 ft 26 kts 205°
2026-04-21 19:25 48.95925 2.44218 156 ft 28 kts 205°
2026-04-21 19:26 48.95779 2.44116 153 ft 21 kts 206°
2026-04-21 19:26 48.95698 2.44019 151 ft 11 kts 261°
2026-04-21 19:26 48.95730 2.43880 151 ft 17 kts 294°
2026-04-21 19:26 48.95779 2.43718 153 ft 17 kts 295°
2026-04-21 19:27 48.95830 2.43550 158 ft 14 kts 295°
2026-04-21 19:27 48.95878 2.43396 158 ft 20 kts 294°
2026-04-21 19:27 48.95946 2.43168 154 ft 26 kts 298°
2026-04-21 19:27 48.96054 2.42943 149 ft 27 kts 305°
2026-04-21 19:28 48.96148 2.42764 152 ft 18 kts 309°
2026-04-21 19:28 48.96216 2.42637 157 ft 13 kts 307°
2026-04-21 19:28 48.96264 2.42545 158 ft 10 kts 309°
2026-04-21 19:28 48.96327 2.42488 158 ft 11 kts 347°
2026-04-21 19:29 48.96380 2.42508 158 ft 7 kts 51°
2026-04-21 19:29 48.96401 2.42647 160 ft 27 kts 85°
2026-04-21 19:29 48.96441 2.43349 168 ft 113 kts 85°
2026-04-21 19:29 48.96522 2.44789 356 ft 144 kts 83°
2026-04-21 19:30 48.96596 2.46343 932 ft 148 kts 84°
2026-04-21 19:30 48.96698 2.47926 1603 ft 152 kts 81°
2026-04-21 19:30 48.96814 2.49509 2421 ft 147 kts 83°
2026-04-21 19:30 48.96886 2.51028 3249 ft 143 kts 86°
2026-04-21 19:31 48.96920 2.52050 3607 ft 152 kts 87°
2026-04-21 19:31 48.96811 2.53810 3856 ft 182 kts 95°
2026-04-21 19:31 48.96652 2.55864 4136 ft 209 kts 95°
2026-04-21 19:31 48.96493 2.58197 4377 ft 233 kts 94°
2026-04-21 19:32 48.96326 2.60691 5267 ft 235 kts 95°
2026-04-21 19:32 48.96156 2.63180 6237 ft 239 kts 95°
2026-04-21 19:32 48.95982 2.65730 7096 ft 246 kts 94°
2026-04-21 19:32 48.95802 2.68375 7912 ft 255 kts 94°
2026-04-21 19:33 48.95614 2.71106 8789 ft 264 kts 94°
2026-04-21 19:33 48.95419 2.73933 9618 ft 273 kts 94°
2026-04-21 19:33 48.95220 2.76792 10129 ft 274 kts 93°
2026-04-21 19:33 48.94960 2.79793 10394 ft 296 kts 96°
2026-04-21 19:34 48.94721 2.83043 10576 ft 320 kts 92°
2026-04-21 19:34 48.94537 2.86420 11343 ft 321 kts 93°
2026-04-21 19:34 48.94289 2.89828 12026 ft 327 kts 95°
2026-04-21 19:34 48.93769 2.93226 12587 ft 338 kts 111°
2026-04-21 19:35 48.92408 2.96159 13307 ft 345 kts 133°
2026-04-21 19:35 48.87957 2.98766 14570 ft 357 kts 182°
2026-04-21 19:35 48.85556 2.97882 15154 ft 358 kts 207°
2026-04-21 19:36 48.83591 2.95639 15783 ft 354 kts 231°
2026-04-21 19:36 48.82320 2.92495 16480 ft 348 kts 248°
2026-04-21 19:36 48.81301 2.89162 17225 ft 349 kts 250°
2026-04-21 19:36 48.80309 2.85794 17956 ft 351 kts 250°
2026-04-21 19:37 48.79282 2.82421 18679 ft 350 kts 250°
2026-04-21 19:37 48.78244 2.79086 19155 ft 355 kts 250°
2026-04-21 19:37 48.77199 2.75682 19154 ft 353 kts 250°
2026-04-21 19:37 48.76159 2.72275 19151 ft 357 kts 250°
2026-04-21 19:38 48.75112 2.68866 19149 ft 357 kts 250°
2026-04-21 19:38 48.74061 2.65462 19151 ft 357 kts 250°
2026-04-21 19:38 48.72972 2.62074 19149 ft 363 kts 246°
2026-04-21 19:38 48.71506 2.58934 19900 ft 362 kts 240°
2026-04-21 19:39 48.69766 2.56113 20525 ft 377 kts 226°
2026-04-21 19:39 48.67498 2.53975 21149 ft 392 kts 212°
2026-04-21 19:39 48.64848 2.52716 21754 ft 409 kts 196°
2026-04-21 19:39 48.61964 2.52417 22327 ft 419 kts 187°
2026-04-21 19:40 48.59075 2.52356 22990 ft 422 kts 186°
2026-04-21 19:40 48.56076 2.52329 23569 ft 428 kts 186°
2026-04-21 19:40 48.53122 2.52303 24087 ft 432 kts 186°
2026-04-21 19:40 48.50107 2.52255 24601 ft 435 kts 186°
2026-04-21 19:41 48.47074 2.52204 25182 ft 437 kts 186°
2026-04-21 19:41 48.44024 2.52163 25716 ft 440 kts 186°
2026-04-21 19:41 48.40949 2.52124 26227 ft 443 kts 186°
2026-04-21 19:41 48.37867 2.52081 26845 ft 444 kts 187°
2026-04-21 19:42 48.34765 2.52035 27367 ft 447 kts 187°
2026-04-21 19:42 48.31640 2.51990 27907 ft 451 kts 187°
2026-04-21 19:42 48.28495 2.51947 28450 ft 454 kts 187°
2026-04-21 19:42 48.25323 2.51903 28983 ft 457 kts 187°
2026-04-21 19:43 48.22130 2.51858 29520 ft 460 kts 187°
2026-04-21 19:43 48.18914 2.51812 30030 ft 463 kts 187°
2026-04-21 19:43 48.15685 2.51767 30539 ft 466 kts 187°
2026-04-21 19:43 48.12437 2.51723 31008 ft 468 kts 187°
2026-04-21 19:44 48.09161 2.51945 31414 ft 478 kts 179°
2026-04-21 19:44 48.05847 2.52911 31563 ft 495 kts 170°
2026-04-21 19:44 48.02519 2.54530 31586 ft 509 kts 166°
2026-04-21 19:44 47.99145 2.56192 32009 ft 511 kts 167°
2026-04-21 19:45 47.95776 2.57868 32612 ft 509 kts 166°
2026-04-21 19:45 47.92460 2.59700 33258 ft 508 kts 164°
2026-04-21 19:45 47.89160 2.61553 33861 ft 506 kts 165°
2026-04-21 19:45 47.85846 2.63291 34418 ft 503 kts 167°
2026-04-21 19:46 47.82542 2.64979 34935 ft 502 kts 166°
2026-04-21 19:46 47.79237 2.66732 35100 ft 510 kts 165°
2026-04-21 19:46 47.75870 2.68559 35095 ft 520 kts 165°
2026-04-21 19:47 47.68999 2.72177 35110 ft 539 kts 166°
2026-04-21 19:47 47.61821 2.75967 35112 ft 555 kts 165°
2026-04-21 19:48 47.54524 2.79813 35089 ft 557 kts 165°
2026-04-21 19:48 47.47209 2.83639 35087 ft 558 kts 165°
2026-04-21 19:49 47.39885 2.87478 35080 ft 558 kts 165°
2026-04-21 19:49 47.32561 2.91287 35079 ft 559 kts 165°
2026-04-21 19:50 47.26452 2.94467 35080 ft 560 kts 165°
2026-04-21 19:50 47.17861 2.98917 35068 ft 560 kts 165°
2026-04-21 19:51 47.10515 3.02715 35046 ft 559 kts 165°
2026-04-21 19:51 47.03171 3.06496 35047 ft 559 kts 165°
2026-04-21 19:52 46.95824 3.10271 35049 ft 559 kts 165°
2026-04-21 19:52 46.88484 3.14029 35045 ft 559 kts 165°
2026-04-21 19:53 46.81138 3.17781 35048 ft 559 kts 165°
2026-04-21 19:53 46.73834 3.21499 35048 ft 561 kts 165°
2026-04-21 19:54 46.66469 3.25239 35059 ft 563 kts 165°
2026-04-21 19:54 46.59062 3.28988 35054 ft 564 kts 165°
2026-04-21 19:55 46.51654 3.32728 35027 ft 564 kts 165°
2026-04-21 19:55 46.44251 3.36453 35043 ft 563 kts 165°
2026-04-21 19:56 46.36851 3.40168 35007 ft 563 kts 165°
2026-04-21 19:56 46.29453 3.43869 34997 ft 561 kts 165°
2026-04-21 19:57 46.22080 3.47549 34992 ft 561 kts 165°
2026-04-21 19:57 46.14703 3.51219 34994 ft 561 kts 165°
2026-04-21 19:58 46.07335 3.54877 34994 ft 557 kts 165°
2026-04-21 19:58 46.00049 3.58479 35003 ft 558 kts 165°
2026-04-21 19:59 45.92706 3.62104 35011 ft 558 kts 165°
2026-04-21 19:59 45.85378 3.65710 35024 ft 556 kts 165°
2026-04-21 20:00 45.78060 3.69297 35028 ft 556 kts 165°
2026-04-21 20:00 45.70736 3.72884 35002 ft 556 kts 165°
2026-04-21 20:01 45.63435 3.76445 35026 ft 554 kts 165°
2026-04-21 20:01 45.56139 3.79995 35017 ft 554 kts 165°
2026-04-21 20:02 45.48842 3.83536 35018 ft 553 kts 165°
2026-04-21 20:02 45.41554 3.87062 35025 ft 553 kts 165°
2026-04-21 20:03 45.34233 3.90596 35038 ft 556 kts 165°
2026-04-21 20:03 45.27199 3.95163 35006 ft 560 kts 151°
2026-04-21 20:04 45.21050 4.02029 35023 ft 565 kts 140°
2026-04-21 20:04 45.15180 4.09439 35024 ft 564 kts 143°
2026-04-21 20:05 45.09010 4.16253 35014 ft 560 kts 143°
2026-04-21 20:05 45.03115 4.23375 35019 ft 561 kts 142°
2026-04-21 20:06 44.97028 4.30264 35007 ft 561 kts 144°
2026-04-21 20:06 44.91031 4.37306 34991 ft 561 kts 142°
2026-04-21 20:07 44.85041 4.44162 34989 ft 559 kts 144°
2026-04-21 20:07 44.80033 4.49927 34988 ft 560 kts 143°
2026-04-21 20:08 44.72993 4.58023 34989 ft 560 kts 143°
2026-04-21 20:08 44.66924 4.64954 34976 ft 562 kts 143°
2026-04-21 20:09 44.60854 4.71896 34976 ft 563 kts 143°
2026-04-21 20:09 44.54814 4.78895 34950 ft 565 kts 139°
2026-04-21 20:10 44.49295 4.86747 34949 ft 566 kts 135°
2026-04-21 20:10 44.43733 4.94528 34948 ft 565 kts 137°
2026-04-21 20:11 44.38154 5.02334 34951 ft 568 kts 136°
2026-04-21 20:11 44.32576 5.10152 34947 ft 568 kts 137°
2026-04-21 20:12 44.26833 5.17691 34928 ft 564 kts 144°
2026-04-21 20:12 44.21347 5.22524 34930 ft 559 kts 155°
2026-04-21 20:12 44.16793 5.25698 34879 ft 527 kts 158°
2026-04-21 20:13 44.13623 5.27962 34624 ft 502 kts 155°
2026-04-21 20:13 44.10609 5.30360 33475 ft 497 kts 153°
2026-04-21 20:13 44.07749 5.32683 31326 ft 458 kts 153°
2026-04-21 20:13 44.05053 5.34748 27463 ft 431 kts 155°
2026-04-21 20:14 44.02365 5.36675 22926 ft 456 kts 155°
2026-04-21 20:14 43.99513 5.38703 22215 ft 450 kts 155°
2026-04-21 20:14 43.96730 5.40674 21923 ft 451 kts 154°
2026-04-21 20:14 43.94019 5.42838 21607 ft 448 kts 151°
2026-04-21 20:15 43.91371 5.45089 21338 ft 446 kts 151°
2026-04-21 20:15 43.88662 5.47156 21052 ft 442 kts 155°
2026-04-21 20:15 43.85930 5.49063 20800 ft 439 kts 155°
2026-04-21 20:15 43.83234 5.51052 20545 ft 438 kts 153°
2026-04-21 20:16 43.80590 5.53127 20299 ft 437 kts 153°
2026-04-21 20:16 43.77985 5.55123 20045 ft 415 kts 154°
2026-04-21 20:16 43.75587 5.57179 19869 ft 404 kts 142°
2026-04-21 20:16 43.73674 5.60066 19916 ft 410 kts 129°
2026-04-21 20:17 43.72498 5.62118 19930 ft 411 kts 128°
2026-04-21 20:17 43.70757 5.65256 19930 ft 412 kts 128°
2026-04-21 20:17 43.69022 5.68379 19798 ft 404 kts 128°
2026-04-21 20:17 43.67275 5.71452 19130 ft 409 kts 129°
2026-04-21 20:18 43.65521 5.74513 18663 ft 404 kts 129°
2026-04-21 20:18 43.63815 5.77516 18240 ft 381 kts 129°
2026-04-21 20:18 43.62313 5.80175 16791 ft 333 kts 129°
2026-04-21 20:18 43.60886 5.82677 14264 ft 335 kts 129°
2026-04-21 20:19 43.59443 5.85191 12560 ft 326 kts 129°
2026-04-21 20:19 43.58062 5.87608 11928 ft 319 kts 129°
2026-04-21 20:19 43.56748 5.89920 11602 ft 288 kts 129°
2026-04-21 20:19 43.55505 5.92107 10690 ft 297 kts 129°
2026-04-21 20:20 43.54216 5.94362 10328 ft 300 kts 129°
2026-04-21 20:20 43.52963 5.96666 10010 ft 300 kts 125°
2026-04-21 20:20 43.51839 5.99051 9933 ft 292 kts 123°
2026-04-21 20:20 43.50756 6.01337 9929 ft 279 kts 125°
2026-04-21 20:21 43.49642 6.03546 9939 ft 293 kts 126°
2026-04-21 20:21 43.48417 6.05964 9938 ft 314 kts 125°
2026-04-21 20:21 43.47183 6.08457 9936 ft 317 kts 125°
2026-04-21 20:21 43.45947 6.10963 9940 ft 316 kts 125°
2026-04-21 20:22 43.44701 6.13466 9943 ft 316 kts 125°
2026-04-21 20:22 43.42204 6.18458 9931 ft 317 kts 125°
2026-04-21 20:22 43.40971 6.20932 9698 ft 309 kts 125°
2026-04-21 20:23 43.39747 6.23384 8937 ft 311 kts 125°
2026-04-21 20:23 43.38530 6.25816 8382 ft 306 kts 125°
2026-04-21 20:23 43.37312 6.28248 7937 ft 307 kts 124°
2026-04-21 20:23 43.36127 6.30614 7934 ft 299 kts 124°
2026-04-21 20:24 43.34943 6.32975 7937 ft 301 kts 124°
2026-04-21 20:24 43.33752 6.35347 7938 ft 301 kts 124°
2026-04-21 20:24 43.32546 6.37695 7933 ft 301 kts 128°
2026-04-21 20:24 43.30925 6.39463 7885 ft 298 kts 156°
2026-04-21 20:25 43.28936 6.40094 7915 ft 291 kts 182°
2026-04-21 20:25 43.26992 6.39544 7926 ft 284 kts 207°
2026-04-21 20:25 43.25417 6.38010 7928 ft 275 kts 231°
2026-04-21 20:25 43.24482 6.35968 7922 ft 234 kts 252°
2026-04-21 20:26 43.24160 6.33947 7923 ft 203 kts 269°
2026-04-21 20:26 43.24272 6.32125 7924 ft 185 kts 284°
2026-04-21 20:26 43.24720 6.30487 7930 ft 185 kts 298°
2026-04-21 20:26 43.25431 6.29026 7951 ft 185 kts 305°
2026-04-21 20:27 43.26159 6.27564 7941 ft 185 kts 304°
2026-04-21 20:27 43.26881 6.26103 7934 ft 185 kts 304°
2026-04-21 20:27 43.27613 6.24645 7935 ft 185 kts 304°
2026-04-21 20:27 43.28343 6.23193 7922 ft 185 kts 304°
2026-04-21 20:28 43.29177 6.21861 7878 ft 188 kts 325°
2026-04-21 20:28 43.30456 6.21608 7564 ft 196 kts
2026-04-21 20:28 43.31555 6.22773 6997 ft 213 kts 56°
2026-04-21 20:28 43.31802 6.24770 6620 ft 215 kts 90°
2026-04-21 20:29 43.31671 6.26760 6277 ft 211 kts 93°
2026-04-21 20:29 43.31534 6.28861 5894 ft 225 kts 93°
2026-04-21 20:29 43.31398 6.31118 5966 ft 249 kts 93°
2026-04-21 20:29 43.31259 6.33455 5966 ft 249 kts 93°
2026-04-21 20:30 43.31118 6.35841 5918 ft 250 kts 92°
2026-04-21 20:30 43.30980 6.38098 5939 ft 228 kts 93°
2026-04-21 20:30 43.30845 6.40284 5934 ft 229 kts 93°
2026-04-21 20:30 43.30712 6.42479 5986 ft 231 kts 92°
2026-04-21 20:31 43.30576 6.44684 5787 ft 237 kts 93°
2026-04-21 20:31 43.30426 6.46893 5439 ft 227 kts 94°
2026-04-21 20:31 43.30302 6.49078 4658 ft 233 kts 92°
2026-04-21 20:31 43.30192 6.51320 4038 ft 234 kts 92°
2026-04-21 20:32 43.30086 6.53508 4014 ft 233 kts 92°
2026-04-21 20:32 43.30012 6.55694 3990 ft 220 kts 91°
2026-04-21 20:32 43.29912 6.57783 3994 ft 220 kts 93°
2026-04-21 20:32 43.29807 6.59899 3848 ft 222 kts 92°
2026-04-21 20:33 43.29700 6.62000 3650 ft 219 kts 93°
2026-04-21 20:33 43.29598 6.64077 3451 ft 217 kts 93°
2026-04-21 20:33 43.29500 6.66135 3247 ft 215 kts 93°
2026-04-21 20:33 43.29403 6.68257 3056 ft 229 kts 93°
2026-04-21 20:34 43.29305 6.70433 2871 ft 229 kts 92°
2026-04-21 20:34 43.29208 6.72612 2684 ft 229 kts 93°
2026-04-21 20:34 43.29112 6.74789 2494 ft 228 kts 93°
2026-04-21 20:34 43.29017 6.76947 2299 ft 226 kts 93°
2026-04-21 20:35 43.28922 6.79091 2098 ft 225 kts 93°
2026-04-21 20:35 43.28831 6.81227 1998 ft 223 kts 93°
2026-04-21 20:35 43.28742 6.83362 1997 ft 224 kts 93°
2026-04-21 20:35 43.28652 6.85510 1999 ft 226 kts 93°
2026-04-21 20:36 43.28845 6.87623 1940 ft 225 kts 65°
2026-04-21 20:36 43.29874 6.89086 1968 ft 199 kts 34°
2026-04-21 20:36 43.30945 6.90123 1985 ft 184 kts 40°
2026-04-21 20:36 43.31861 6.91362 1988 ft 185 kts 47°
2026-04-21 20:37 43.32732 6.92661 1993 ft 185 kts 47°
2026-04-21 20:37 43.33611 6.93952 1996 ft 185 kts 47°
2026-04-21 20:37 43.34496 6.95239 1998 ft 185 kts 47°
2026-04-21 20:37 43.35367 6.96507 1999 ft 185 kts 47°
2026-04-21 20:38 43.36249 6.97792 1997 ft 185 kts 47°
2026-04-21 20:38 43.37175 6.99015 1968 ft 186 kts 35°
2026-04-21 20:38 43.38392 6.99543 1980 ft 186 kts
2026-04-21 20:38 43.39668 6.99300 2002 ft 186 kts 348°
2026-04-21 20:39 43.40936 6.98932 2005 ft 187 kts 349°
2026-04-21 20:39 43.42208 6.98581 2006 ft 187 kts 350°
2026-04-21 20:39 43.43479 6.98227 2006 ft 186 kts 350°
2026-04-21 20:39 43.44749 6.97870 2009 ft 186 kts 350°
2026-04-21 20:40 43.46024 6.97512 1921 ft 190 kts 350°
2026-04-21 20:40 43.47306 6.97149 1816 ft 184 kts 350°
2026-04-21 20:40 43.48569 6.96792 1942 ft 188 kts 350°
2026-04-21 20:40 43.49814 6.96848 1936 ft 179 kts 22°
2026-04-21 20:41 43.50924 6.97613 2069 ft 178 kts 29°
2026-04-21 20:41 43.52027 6.98146 2240 ft 152 kts 12°
2026-04-21 20:41 43.53005 6.98123 2076 ft 138 kts 356°
2026-04-21 20:41 43.53950 6.97997 1838 ft 134 kts 356°
2026-04-21 20:42 43.54864 6.97953 1619 ft 130 kts
2026-04-21 20:42 43.55749 6.98027 1455 ft 130 kts 358°
2026-04-21 20:42 43.56627 6.97806 1371 ft 127 kts 348°
2026-04-21 20:42 43.57498 6.97555 1279 ft 127 kts 352°
2026-04-21 20:43 43.58375 6.97378 1230 ft 129 kts 354°
2026-04-21 20:43 43.59251 6.97159 1245 ft 128 kts 349°
2026-04-21 20:43 43.59946 6.96434 1309 ft 133 kts 294°
2026-04-21 20:43 43.60017 6.95140 1209 ft 137 kts 264°
2026-04-21 20:44 43.59708 6.93922 976 ft 133 kts 226°
2026-04-21 20:44 43.58869 6.93621 805 ft 131 kts 163°
2026-04-21 20:44 43.58052 6.94158 664 ft 130 kts 155°
2026-04-21 20:44 43.57189 6.94567 473 ft 131 kts 161°
2026-04-21 20:45 43.56291 6.94822 242 ft 131 kts 172°
2026-04-21 20:45 43.55390 6.94984 41 ft 128 kts 172°
2026-04-21 20:45 43.54605 6.95120 15 ft 89 kts 174°
2026-04-21 20:45 43.54255 6.95184 14 ft 32 kts 170°
2026-04-21 20:46 43.54055 6.95224 14 ft 18 kts 173°
2026-04-21 20:46 43.54005 6.95283 14 ft 9 kts 94°
2026-04-21 20:46 43.54013 6.95352 14 ft 6 kts 68°
2026-04-21 20:46 43.54040 6.95387 14 ft 5 kts
2026-04-21 20:47 43.54062 6.95385 14 ft 2 kts 353°
2026-04-21 20:47 43.54089 6.95380 14 ft 9 kts 353°
2026-04-21 20:47 43.54176 6.95365 14 ft 12 kts 352°
2026-04-21 20:47 43.54254 6.95351 14 ft 10 kts 352°
2026-04-21 20:48 43.54319 6.95339 14 ft 9 kts 352°
2026-04-21 20:48 43.54380 6.95328 14 ft 9 kts 353°
2026-04-21 20:48 43.54423 6.95322 14 ft 6 kts 354°
2026-04-21 20:48 43.54459 6.95316 14 ft 5 kts 352°
2026-04-21 20:49 43.54492 6.95310 14 ft 6 kts 352°
2026-04-21 20:49 43.54571 6.95295 14 ft 16 kts 352°
2026-04-21 20:49 43.54616 6.95287 14 ft 1 kts 352°
2026-04-21 20:49 43.54624 6.95290 14 ft 3 kts 28°
2026-04-21 20:50 43.54632 6.95322 14 ft 3 kts 82°
2026-04-21 20:50 43.54624 6.95333 14 ft 1 kts 174°
2026-04-21 20:50 43.54623 6.95334 14 ft 0 kts 171°